Find Starlink 31967

NORAD ID: 60021 Int'l Des: 2024-111 Owner: SPXS Country: US Constellation: starlink operational
LEOCIRCULAR

現在のビュー

3D地球を読み込み中...

About Starlink 31967

Starlink 31967 (NORAD 60021) is a starlink constellation satellite (v2 mini) launched Jun 8, 2024 by SPXS of US. It operates in LEO, CIRCULAR orbit with a mass of 730.00 kg.

次回通過

Passes for default location (London). Set your location on the main map for personalized predictions.

高度履歴

Loading altitude history...

軌道要素

1 60021U 24111F 26263.22433899 -.00000454 00000-0 -22913-5 0 9994
2 60021 53.1587 247.3477 0001293 87.1547 272.9604 15.34386689128892
Epoch: Sep 20, 2026 • Age: 20 hours

現在のステータス

高度 475.8 km
遠地点 / 近地点 N/A
速度 7.63 km/s
衛星直下点 -37.98°S, 174.43°W
打ち上げ日 Jun 8, 2024
運用期間 2.2 years
タイプ internet

技術仕様

分類 Payload
質量 730.00 kg
乾燥質量 700.00 kg
長さ 0.30 m
スパン 29.00 m
形状 ? Box + pan
製造者 SPXS
バスタイプ Starlink V2M
フェーズステータス In Orbit
所有者/国 SPXS/US

Most Searched